Voltar ao catálogo

PEGASUS DEB

AtivoPO
NORAD 24985·DEBRIS·🇺🇸 United States

Lançado May 19, 1994 de Vandenberg Space Force Base

Loading…

Próximas Passagens (próximas 24 horas)

TLE

AtualizadoSource: Space-Track

Época: Sep 14, 2026, 05:41 UTC

1 24985U 94029ACT 26257.23711925  .00001301  00000-0  38545-3 0  9997
2 24985  81.5080  86.7197 0600589  48.3425 316.7560 13.71079077611383

Acompanhe PEGASUS DEB em tempo real com AllMySat

Download on the App Store